Regional Weather Roundup
Issued by NWS

Home | Current Version | Previous Version | Text Only | Print | Product List | Glossary Off
Versions: 1 2 3 4 5 6 7 8 9 10 11 12 13 14 15 16 17 18 19 20 21 22 23 24 25 26 27 28 29 30 31 32 33 34 35 36 37 38 39 40 41 42 43 44 45 46 47 48 49 50

000
ASUS43 KDTX 270801
RWRMI
MICHIGAN HOURLY REGIONAL WEATHER ROUNDUP
NATIONAL WEATHER SERVICE DETROIT/PONTIAC MI
400 AM EDT FRI MAY 27 2016

NOTE: "FAIR" INDICATES FEW OR NO CLOUDS BELOW 12,000 FEET WITH NO
SIGNIFICANT WEATHER AND/OR OBSTRUCTION TO VISIBILITY.

MIZ047>049-052>055-059>063-066>070-074>076-081>083-270900-
SOUTHEAST LOWER MICHIGAN

CITY           SKY/WX    TMP DP  RH WIND       PRES   REMARKS
ADRIAN         CLEAR     65  61  87 W5        29.97R
ALMA           FOG       59  59  99 CALM      29.93R VSB 1/2
ANN ARBOR      FOG       60  60 100 SW3       29.94S VSB 3/4
BAD AXE        CLOUDY    64  64  99 CALM      29.92R
CARO           FOG       59  58  98 CALM      29.92R VSB<1/4
DETROIT CITY   CLEAR     71  64  78 SW9       29.94R
DETROIT        MOCLDY    69  63  81 SW9       29.95R
FLINT          CLEAR     65  59  81 CALM      29.93R
GROSSE ILE     CLEAR     70  64  83 SW5       29.94R
HILLSDALE      PTCLDY    65  60  86 S3        29.96S
HOWELL         CLEAR     66  62  86 SW5       29.95R

CITY           SKY/WX    TMP DP  RH WIND       PRES   REMARKS
JACKSON        CLEAR     63  60  90 CALM      29.95S
LAMBERTVILLE   CLEAR     68  63  82 CALM      29.96S
LANSING        CLEAR     64  59  83 CALM      29.94R
LAPEER         FAIR      63  61  93 CALM      29.93R
MASON          CLEAR     65  58  80 CALM      29.95R
MONROE         CLEAR     68  63  84 SW5       29.94S
MT. CLEMENS    CLEAR     69  66  89 SW5       29.92S
PONTIAC        CLEAR     66  62  87 CALM      29.93S
PORT HOPE        N/A     67  65  93 SW5       29.89R
PORT HURON     CLEAR     64  64 100 S3        29.92F FOG
TRI CITIES     CLEAR     67  64  90 SW7       29.92R FOG
MIDLAND        FOG       61  61 100 CALM      29.91R VSB 3/4
TROY           PTCLDY    72  65  79 SW5       29.95S
SAGINAW HB     CLEAR     64  61  88 S5        29.91R
$$
MIZ043>046-050>051-056>058-064>065-071>073-077>080-270900-
SOUTHWEST LOWER MICHIGAN

CITY           SKY/WX    TMP DP  RH WIND       PRES   REMARKS
BATTLE CREEK   CLEAR     64  60  87 SW5       29.95R
BENTON HARBOR  PTCLDY    69  63  81 S6        29.92S
BIG RAPIDS     MOCLDY    58  57  98 CALM      29.92R FOG
COLDWATER      PTCLDY    65  61  89 CALM      29.95S
FREMONT        FAIR      61  61 100 CALM      29.92R FOG
HOLLAND        CLEAR     69  64  84 SW7       29.93R
GRAND RAPIDS   CLEAR     67  63  87 SW5       29.92S
IONIA          FAIR      62  60  93 SW6       29.92S
KALAMAZOO      PTCLDY    67  61  81 SW6       29.94S
LUDINGTON      FOG       56  56 100 CALM      29.91R VSB 1/2
MARSHALL       CLEAR     67  62  83 SW5       29.94S
MOUNT PLEASANT FOG       59  59  99 CALM      29.92R VSB 1/4
MUSKEGON       PTCLDY    70  63  78 S12       29.91R
SOUTH HAVEN    MOCLDY    68  65  92 SW3       29.93R
$$
MIZ016>042-270900-
NORTHERN LOWER MICHIGAN

CITY           SKY/WX    TMP DP  RH WIND       PRES   REMARKS
ALPENA         PTCLDY    57  56  96 NW3       29.91R
BEAVER ISLAND  CLOUDY    51  51 100 CALM      29.90S FOG
BELLAIRE       FOG       55  54  96 CALM      29.91R VSB 1/2
CADILLAC       CLEAR     57  53  88 CALM      29.93R FOG
CHARLEVOIX     FOG       54  54 100 SE3       29.93S VSB 1
FRANKFORT      CLEAR     56  56  99 CALM      29.91R FOG
GAYLORD        FOG       59  57  93 CALM      29.92R VSB 1
GRAYLING       CLEAR     53  52  96 CALM      29.93R
HARBOR SPRINGS FOG       53  53 100 CALM      29.91S VSB 1/2
HOUGHTON LAKE  PTCLDY    57  56  96 CALM      29.93R FOG
MANISTEE       PTCLDY    55  54  94 CALM      29.91R
OSCODA         CLEAR     60  58  94 W3        29.90R
PELLSTON       FOG       57  56  96 CALM      29.91R VSB 1/4
ROGERS CITY    FOG       55  54  95 CALM      29.91R VSB 1
TRAVERSE CITY  CLEAR     57  55  93 CALM      29.90R FOG
$$
MIZ007>008-015-270900-
EASTERN UPPER MICHIGAN

CITY           SKY/WX    TMP DP  RH WIND       PRES   REMARKS
KINROSS          N/A     57  55  94 SW3       29.90S VSB 1/4
MACKINAC ISLAN FOG       54  54 100 CALM      29.90R VSB 1/2
NEWBERRY       FOG       53  52  97 SW6       29.89S VSB 1/2
S. S. MARIE    FOG       55  54  96 CALM      29.89R VSB 1/2
MUNISING         N/A     59  58  96 S7        29.86S
$$
MIZ004>006-011>014-085-270900-
CENTRAL UPPER MICHIGAN

CITY           SKY/WX    TMP DP  RH WIND       PRES   REMARKS
MANISTIQUE     FOG       51  50  97 SE3       29.88S VSB 1/4
ESCANABA       CLOUDY    50  48  93 CALM      29.88S VSB 1/2
MENOMINEE      CLEAR     54  54 100 CALM      29.88R
SAWYER-GWINN   MOCLDY    56  55  96 S3        29.89S FOG
$$
MIZ001>003-009>011-084-270900-
WESTERN UPPER MICHIGAN

CITY           SKY/WX    TMP DP  RH WIND       PRES   REMARKS
IRON MOUNTAIN  FOG       60  59  96 CALM      29.86F VSB 1/4
HOUGHTON       FOG       52  50  93 NW3       29.85R VSB 1/2
COPPER HARBOR    N/A     48  47  96 CALM      29.84S
IRONWOOD       CLOUDY    54  54 100 CALM      29.86S VSB 1/2
$$

ABBREVIATIONS USED IN REMARKS
   TC - TEMPERATURE IN CELSIUS
  WCI - WIND CHILL INDEX
   HX - HEAT INDEX
  VSB - VISIBILITY





USA.gov is the U.S. government's official web portal to all federal, state and local government web resources and services.